User: anonymous   Login
Location: ?
(35.6144°N, 139.6873°E)
Time: 12:57:33
(UTC+00:00)
Language:

Cosmos 1371 Rocket - Orbit

View from above orbital plane
View from above orbital plane
View from above satellite
View from above satellite

Ground track
Ground track

The orbit data is extracted from the following two-line orbital elements,

1 13242U 82051B   24200.70925570  .00000664  00000-0  23336-3 0  9997
2 13242  74.0440 282.4313 0024985 209.8087 150.1645 14.36702513204929
Epoch (UTC): 18 July 2024 17:01:19
Eccentricity: 0.0024985
inclination: 74.0440°
perigee height: 751 km
apogee height: 787 km
right ascension of ascending node: 282.4313°
argument of perigee: 209.8087°
revolutions per day: 14.36702513
mean anomaly at epoch: 150.1645°
orbit number at epoch: 20492

The dashed part of the orbit path shows where the satellite is in the earth's shadow,  

DLR